Location: Unspecified
(43.4354°N, 0.0000°E)
Time: 03:35:56
(UTC+00:00)

ISS - Visible Passes

Search period start: 27 May 2019 00:00
Search period end: 06 June 2019 00:00
Orbit: 408 x 418 km, 51.6° (Epoch: 27 May)

Date Brightness Start Highest point End Pass type
(mag) Time Alt. Az. Time Alt. Az. Time Alt. Az.
27 May -1.5 21:23:36 10° NW 21:26:21 23° NNE 21:29:07 10° ENE visible
27 May -2.2 23:00:05 10° NW 23:02:08 34° NW 23:02:08 34° NW visible
28 May -1.3 20:34:05 10° NW 20:36:41 20° N 20:39:18 10° ENE visible
28 May -3.1 22:10:39 10° NW 22:13:56 48° NNE 22:14:15 46° NE visible
29 May -2.3 21:21:15 10° NW 21:24:21 34° NNE 21:26:24 17° ENE visible
29 May -1.6 22:57:52 10° WNW 22:59:13 21° WNW 22:59:13 21° WNW visible
30 May -1.9 20:31:48 10° NW 20:34:43 26° NNE 20:37:36 10° ENE visible
30 May -3.7 22:08:18 10° WNW 22:11:23 69° W 22:11:23 69° W visible
31 May -3.6 21:18:49 10° NW 21:22:09 66° NNE 21:23:35 31° ESE visible
31 May -0.9 22:56:11 10° W 22:56:23 11° W 22:56:23 11° W visible
01 Jun -2.8 20:29:22 10° NW 20:32:34 43° NNE 20:35:48 10° E visible
01 Jun -2.4 22:06:11 10° WNW 22:08:37 28° WSW 22:08:37 28° WSW visible
02 Jun -3.4 21:16:29 10° WNW 21:19:44 51° SW 21:20:53 33° SSE visible
03 Jun -3.8 20:26:53 10° WNW 20:30:15 88° SSW 20:33:10 13° SE visible
03 Jun -1.2 22:05:07 10° WSW 22:05:59 12° WSW 22:05:59 12° WSW visible
04 Jun -1.9 21:14:33 10° W 21:17:06 20° SW 21:18:19 17° SSW visible
05 Jun -2.6 20:24:37 10° WNW 20:27:41 34° SW 20:30:42 10° SSE visible
